This is the latest recevied weather packets stored in our database for station/object N5UKZ-WX. If no packets are shown the sender has not sent any weather packets the latest 10 day(s).
| Time | Temp. | Humidity | Pressure | Rain* | Wind** | Luminosity | Snow |
|---|---|---|---|---|---|---|---|
| 1777564244 | 21.67° C | 100% | 1012.2 hPa | 0 mm | - | - | - |
| 1777563344 | 21.11° C | 100% | 1011.9 hPa | 0 mm | - | - | - |
| 1777562444 | 21.11° C | 100% | 1012.2 hPa | 0 mm | - | - | - |
| 1777561544 | 22.22° C | 100% | 1012.2 hPa | 0 mm | - | - | - |
| 1777560644 | 21.67° C | 100% | 1012.2 hPa | 0 mm | - | - | - |
| 1777559743 | 21.67° C | 100% | 1011.9 hPa | 0 mm | - | - | - |
| 1777558843 | 21.67° C | 100% | 1011.9 hPa | 0 mm | - | - | - |
| 1777557943 | 21.11° C | 100% | 1011.9 hPa | 0 mm | - | - | - |
| 1777557043 | 21.11° C | 100% | 1011.9 hPa | 0 mm | - | - | - |
| 1777556143 | 21.11° C | 100% | 1011.6 hPa | 0 mm | - | - | - |
| 1777555243 | 21.67° C | 100% | 1011.6 hPa | 0 mm | - | - | - |
| 1777554342 | 21.67° C | 100% | 1011.6 hPa | 0 mm | - | - | - |
| 1777553442 | 21.11° C | 100% | 1011.2 hPa | 0 mm | - | - | - |
| 1777552542 | 21.11° C | 100% | 1011.2 hPa | 0 mm | - | - | - |
| 1777551642 | 21.67° C | 100% | 1010.9 hPa | 0 mm | - | - | - |
| 1777550742 | 21.67° C | 100% | 1010.9 hPa | 0 mm | - | - | - |
| 1777549841 | 21.11° C | 100% | 1010.5 hPa | 0 mm | - | - | - |
| 1777548941 | 21.11° C | 100% | 1010.2 hPa | 0 mm | - | - | - |
| 1777548041 | 21.67° C | 100% | 1010.2 hPa | 0 mm | - | - | - |
| 1777547141 | 21.11° C | 100% | 1010.5 hPa | 0 mm | - | - | - |
| 1777546241 | 20.56° C | 99% | 1010.2 hPa | 0 mm | - | - | - |
| 1777545341 | 21.11° C | 99% | 1010.2 hPa | 0 mm | - | - | - |
| 1777544440 | 21.11° C | 98% | 1010.2 hPa | 0 mm | - | - | - |
| 1777543540 | 21.11° C | 98% | 1009.5 hPa | 0 mm | - | - | - |
| 1777542640 | 21.11° C | 98% | 1009.5 hPa | 0 mm | - | - | - |
* Rain latest hour (hover to see other rain measurements)
** Current wind speed in m/s (hover to see current wind gust speed)